Location: Boussy-Saint-Antoine
(48.6830°N, 2.5330°E)
Time: 07:42:19
(UTC+02:00)

SO-50 - Visible Passes

Search period start: 18 August 2019 00:00
Search period end: 28 August 2019 00:00
Orbit: 588 x 699 km, 64.6° (Epoch: 16 August)

Date Brightness Start Highest point End Pass type
(mag) Time Alt. Az. Time Alt. Az. Time Alt. Az.
18 Aug ? 00:46:14 10° NNW 00:48:24 13° N 00:50:35 10° NNE visible
18 Aug ? 02:27:43 10° NNW 02:30:52 17° NNE 02:33:58 10° ENE visible
18 Aug ? 04:07:47 10° NNW 04:12:31 47° NE 04:17:06 10° ESE visible
18 Aug ? 05:48:34 10° NW 05:52:50 31° WSW 05:56:58 10° S visible
18 Aug ? 21:45:28 10° WSW 21:50:12 45° NW 21:54:59 10° NNE visible
18 Aug ? 23:28:45 10° WNW 23:31:53 16° NNW 23:35:01 10° NNE visible
19 Aug ? 01:12:11 10° NNW 01:14:22 13° N 01:16:31 10° NNE visible
19 Aug ? 02:52:39 10° NNW 02:56:35 23° NNE 03:00:26 10° E visible
19 Aug ? 04:32:50 10° NW 04:37:44 89° NE 04:42:27 10° SE visible
19 Aug ? 22:11:26 10° W 22:15:39 27° NNW 22:19:54 10° NNE visible
19 Aug ? 23:55:22 10° NW 23:57:46 13° N 00:00:09 10° NNE visible
20 Aug ? 01:37:28 10° NNW 01:40:16 15° NNE 01:43:02 10° NE visible
20 Aug ? 03:17:34 10° NNW 03:22:07 37° NE 03:26:31 10° ESE visible
20 Aug ? 04:58:06 10° NW 05:02:42 44° WSW 05:07:08 10° SSE visible
20 Aug ? 22:37:49 10° WNW 22:41:19 19° NNW 22:44:49 10° NNE visible
21 Aug ? 00:21:38 10° NNW 00:23:42 12° N 00:25:47 10° NNE visible
21 Aug ? 02:02:28 10° NNW 02:06:04 20° NNE 02:09:35 10° ENE visible
21 Aug ? 03:42:34 10° NW 03:47:26 67° NE 03:51:23 15° SE visible
21 Aug ? 05:23:52 10° WNW 05:27:26 21° WSW 05:28:43 19° SW visible
21 Aug ? 21:20:43 10° WSW 21:25:12 33° NW 21:29:43 10° NNE visible
21 Aug ? 23:04:26 10° NW 23:07:08 14° NNW 23:09:49 10° NNE visible
22 Aug ? 00:47:10 10° NNW 00:49:39 14° N 00:52:06 10° NE visible
22 Aug ? 02:27:23 10° NNW 02:31:41 29° NE 02:35:11 13° E visible
22 Aug ? 04:07:43 10° NW 04:12:31 62° SW 04:12:39 61° SW visible
22 Aug ? 21:46:56 10° W 21:50:47 22° NNW 21:54:37 10° NNE visible
22 Aug ? 23:30:55 10° NNW 23:33:03 13° N 23:35:11 10° NNE visible
23 Aug ? 01:12:16 10° NNW 01:15:30 17° NNE 01:18:41 10° ENE visible
23 Aug ? 02:52:20 10° NNW 02:57:06 50° NE 02:57:45 47° ENE visible
23 Aug ? 04:33:12 10° WNW 04:35:16 21° WNW 04:35:16 21° WNW visible
23 Aug ? 22:13:29 10° WNW 22:16:32 16° NNW 22:19:33 10° NNE visible
23 Aug ? 23:56:47 10° NNW 23:59:00 13° N 00:01:13 10° NNE visible
24 Aug ? 01:37:11 10° NNW 01:41:12 24° NNE 01:43:19 18° ENE visible
24 Aug ? 03:17:23 10° NW 03:20:52 46° NW 03:20:52 46° NW visible
24 Aug ? 22:40:05 10° NW 22:42:24 13° N 22:44:43 10° NNE visible
25 Aug ? 00:22:02 10° NNW 00:24:55 15° NNE 00:27:45 10° NE visible
25 Aug ? 02:02:07 10° NNW 02:06:42 39° NE 02:06:43 39° NE visible
25 Aug ? 03:42:42 10° NW 03:44:17 19° WNW 03:44:17 19° WNW visible
25 Aug ? 21:22:32 10° WNW 21:25:57 18° NNW 21:29:21 10° NNE visible
25 Aug ? 23:06:17 10° NNW 23:08:21 12° N 23:10:26 10° NNE visible
26 Aug ? 00:47:01 10° NNW 00:50:41 20° NNE 00:52:44 16° ENE visible
26 Aug ? 02:27:07 10° NW 02:30:19 40° NNW 02:30:19 40° NNW visible
26 Aug ? 21:49:10 10° NW 21:51:46 14° NNW 21:54:23 10° NNE visible
26 Aug ? 23:31:45 10° NNW 23:34:17 14° NNE 23:36:48 10° NE visible
27 Aug ? 01:11:55 10° NNW 01:16:17 31° NE 01:16:27 31° NE visible
27 Aug ? 02:52:18 10° NW 02:54:02 22° NW 02:54:02 22° NW visible
27 Aug ? 22:15:36 10° NNW 22:17:42 12° N 22:19:47 10° NNE visible
